Location: *
(6.0000°S, 32.3997°W)
Time: 01:18:02
(UTC+00:00)

SL-08 ROCKET BODY - Pass Details

Date: 01 April 2020
Orbit: 896 x 964 km, 82.9° (Epoch: 06 June)

Event Time Altitude Azimuth Distance (km) Brightness Sun altitude
Rises 21:09:26 0° 8° (N) 3,551 7.4 -14.5°
Reaches altitude 10° 21:12:00 10° 13° (NNE) 2,602 6.6 -15.1°
Maximum altitude 21:17:41 50° 87° (E) 1,145 4.5 -16.5°
Drops below altitude 10° 21:23:20 10° 161° (SSE) 2,582 6.5 -17.9°
Sets 21:25:51 0° 166° (SSE) 3,521 7.3 -18.5°
